Portsmouth, NH

7:19 PM EST on December 10, 2016 (GMT -0500)
Pease International Tradeport

Weather History for KPSM - November, 2011

Change the Weather History Date:

Wednesday, November 30, 2011

  Actual Average Record
Temperature  
Mean Temperature 49 °F -  
Max Temperature 57 °F 42 °F 66 °F (2006)
Min Temperature 41 °F 27 °F 8 °F (1989)
Degree Days  
Heating Degree Days 16    
Moisture  
Dew Point 42 °F    
Average Humidity 71    
Maximum Humidity 99    
Minimum Humidity 46    
Precipitation  
Precipitation 0.53 in - - ()
Sea Level Pressure  
Sea Level Pressure 29.66 in    
Wind  
Wind Speed 13 mph (SSW)    
Max Wind Speed 23 mph    
Max Gust Speed 30 mph    
Visibility 9 miles    
Events Rain    
Averages and records for this station are not official NWS values.
T = Trace of Precipitation, MM = Missing Value Source: NWS Daily Summary

Daily Weather History Graph

Daily Weather History Graph

Search for Another Location

Airport or City:

Trip Planner

Search our weather history database for the weather conditions in past years. The results will help you decide how hot, cold, wet, or windy it might be!

Date:

Astronomy

Nov. 30, 2011 Rise Set
Actual Time 6:53 AM EST 4:09 PM EST
Civil Twilight 6:21 AM EST 4:41 PM EST
Nautical Twilight 5:46 AM EST 5:16 PM EST
Astronomical Twilight 5:12 AM EST 5:51 PM EST
Moon 11:05 AM EST (11/30) 10:09 PM EST (11/30)
Length of Visible Light 10h 19m
Length of Day
9h 16m
Waxing Crescent, 33% of the Moon is Illuminated
Nov 30
Waxing Crescent
Dec 2
First Quarter
Dec 10
Full
Dec 17
Last Quarter
Dec 24
New

Hourly Weather History & Observations

Time (EST) Temp. Windchill Dew Point Humidity Pressure Visibility Wind Dir Wind Speed Gust Speed Precip Events Conditions
12:37 AM 55.4 °F - 53.6 °F 94% 29.72 in 8.0 mi SE 12.7 mph - N/A Rain Light Rain
12:55 AM 55.0 °F - 53.6 °F 95% 29.70 in 8.0 mi SE 12.7 mph - 0.00 in Rain Light Rain
1:55 AM 55.2 °F - 54.9 °F 99% 29.66 in 2.5 mi SE 20.7 mph - 0.05 in Rain Rain
2:55 AM 56.5 °F - 56.3 °F 99% 29.62 in 3.0 mi SSE 21.9 mph 29.9 mph 0.19 in Rain Rain
3:55 AM 56.1 °F - 55.9 °F 99% 29.60 in 3.0 mi SSE 23.0 mph - 0.18 in Rain Light Rain
4:55 AM 57.6 °F - 57.2 °F 99% 29.60 in 7.0 mi SW 13.8 mph 26.5 mph 0.11 in Rain Light Rain
5:55 AM 56.1 °F - 51.4 °F 84% 29.60 in 10.0 mi SSW 8.1 mph - 0.00 in   Overcast
6:55 AM 54.7 °F - 48.7 °F 80% 29.61 in 10.0 mi South 8.1 mph - N/A   Mostly Cloudy
7:55 AM 53.6 °F - 46.8 °F 78% 29.60 in 10.0 mi South 13.8 mph 19.6 mph N/A   Scattered Clouds
8:55 AM 53.2 °F - 45.5 °F 75% 29.61 in 10.0 mi SW 12.7 mph - N/A   Scattered Clouds
9:55 AM 54.3 °F - 40.5 °F 59% 29.62 in 10.0 mi SW 13.8 mph 20.7 mph N/A   Partly Cloudy
10:55 AM 55.2 °F - 36.7 °F 50% 29.60 in 10.0 mi SW 13.8 mph 24.2 mph N/A   Partly Cloudy
11:55 AM 55.4 °F - 34.9 °F 46% 29.59 in 10.0 mi SW 16.1 mph 24.2 mph N/A   Partly Cloudy
12:55 PM 56.7 °F - 36.0 °F 46% 29.57 in 10.0 mi WSW 15.0 mph 21.9 mph N/A   Partly Cloudy
1:55 PM 53.8 °F - 35.2 °F 50% 29.58 in 10.0 mi WSW 12.7 mph - N/A   Mostly Cloudy
2:55 PM 53.4 °F - 37.2 °F 54% 29.60 in 10.0 mi SW 9.2 mph - N/A   Partly Cloudy
3:55 PM 50.9 °F - 34.2 °F 53% 29.62 in 10.0 mi SW 11.5 mph - N/A   Partly Cloudy
4:55 PM 47.8 °F - 34.3 °F 60% 29.65 in 10.0 mi SSW 4.6 mph - N/A   Partly Cloudy
5:55 PM 46.6 °F - 34.7 °F 63% 29.68 in 10.0 mi SSW 6.9 mph - N/A   Partly Cloudy
6:55 PM 47.7 °F - 34.3 °F 60% 29.70 in 10.0 mi SW 9.2 mph - N/A   Mostly Cloudy
7:55 PM 45.3 °F 42.3 °F 35.6 °F 69% 29.73 in 10.0 mi WSW 5.8 mph - N/A   Partly Cloudy
8:55 PM 44.8 °F 40.4 °F 32.0 °F 61% 29.75 in 10.0 mi West 8.1 mph - N/A   Partly Cloudy
9:55 PM 43.3 °F 39.9 °F 32.4 °F 65% 29.76 in 10.0 mi WSW 5.8 mph - N/A   Partly Cloudy
10:55 PM 41.9 °F 39.0 °F 30.9 °F 65% 29.79 in 10.0 mi SW 4.6 mph - N/A   Partly Cloudy
11:55 PM 41.5 °F 38.6 °F 30.6 °F 65% 29.82 in 10.0 mi SW 4.6 mph - N/A   Partly Cloudy